Zurück zum Katalog

SL-16 DEB

AktivLEO
NORAD 22441·DEBRIS·🇷🇺 Russia

Gestartet Dec 25, 1992 von Baikonur Cosmodrome

Loading…

Nächste Überflüge (nächste 24 Stunden)

TLE

AktuellSource: Space-Track

Epoche: Sep 14, 2026, 00:46 UTC

1 22441U 92093EJ  26257.03206051  .00000545  00000-0  35561-3 0  9992
2 22441  71.1940  86.4399 0081690 146.5611  15.1447 14.04976869722630

Verfolge SL-16 DEB in Echtzeit mit AllMySat

Download on the App Store